Torna al catalogo

BEIDOU 3M6

AttivoNavigazioneMEO
NORAD 43208·PAYLOAD·🇨🇳 China

Lanciato Feb 12, 2018 da Xichang Satellite Launch Center

Loading…

Prossimi Passaggi (prossime 24 ore)

TLE

AggiornatoSource: CelesTrak SupGP

Epoca: Sep 14, 2026, 00:00 UTC

1 43208C 18018B   26257.00000000  .00000000  00000+0  00000+0 0  2572
2 43208  56.7323  60.2287 0005246 344.4657 105.7273  1.86231288    15

Traccia BEIDOU 3M6 in tempo reale con AllMySat

Download on the App Store